Weather in Buchach

Ukraine / Ternopil District     49°03′51″N   25°22′52″E
temp.,
°C
wind,
m/s
gust,
m/s
humid.,
%
clouds,
%
prec.,
mm/h
press.,
hPa
HPBL,
m
22 january, sat
sat2223:00−5w91688100 0.1 1014799
02:00−5wnw81492100 0.4 1014820
05:00−5w71394100 0.3 1013801
08:00−5wnw71392100 0.5 1014642
11:00−4wnw81385100 0.1 1015794
14:00−4wnw71394100 1.2 10141057
17:00−4nnw6128778 0.8 1017555
20:00−6nw61292100 0.8 1020584
23 january, sun
sun2323:00−5wnw71293100 0.4 1022805
02:00−6wnw81391100 0.6 1021831
05:00−5nw71392100 0.2 10211030
08:00−5nnw61195100 1.1 1020977
11:00−5n71088100 0.6 10221037
14:00−6n798699 0.7 1025990
17:00−8nne6118887 0.1 1028472
20:00−10n51193100 0.1 1031406
24 january, mon
mon2423:00−11n369694 0.0 1033160
02:00−12nnw379676 0.1 1035154
05:00−13nnw259771 0.0 1036109
08:00−13nw359763 0.1 103894
11:00−11nw359296 0.0 1038228
14:00−8nw5689100 0.1 1037455
17:00−10nw37955 0.0 1037130
20:00−13nw369743 0.0 103788
25 january, tue
tue2523:00−13nw359742 0.0 103677
02:00−14nw249855 0.0 103560
05:00−14wnw239849 0.0 103444
08:00−15wnw239721 0.0 103336
11:00−10w358598 0.0 1031135
14:00−7wnw3879100 0.0 1028221
17:00−6w3986100 0.0 1026293
20:00−4w61495100 0.5 1024583
26 january, wed
wed2623:00−3wnw71694100 0.4 1023576
02:00−3wnw81593100 1.0 1023540
05:00−3wnw61496100 0.3 1022561
08:00−2nw7139498 1.1 1023647
11:00−3nnw7129197 0.2 1024805
14:00−3nw6118756 0.3 1025780
17:00−5nnw61191100 0.1 1026562
20:00−6nw51091100 0.1 1026428